FW3182 Weather Reports


Display with metric or nautical units.
time (UTC)temp
F
wind
direction
speed
MPH
gust
MPH
rain 1hr
in
rain 24hr
in
rain mn
in
humidity
%
barometer
mb
20260502203704 65 274 3.0 12.0 0.00 0.00 0.00 42 1018.8
20260502203203 65 273 3.0 6.0 0.00 0.00 0.00 42 1018.9
20260502202703 65 263 3.0 7.0 0.00 0.00 0.00 44 1018.8
20260502202204 64 285 2.0 7.0 0.00 0.00 0.00 41 1018.9
20260502201704 64 330 2.0 5.0 0.00 0.00 0.00 42 1018.8
20260502201204 64 275 1.0 6.0 0.00 0.00 0.00 41 1018.9
20260502200704 64 347 3.0 10.0 0.00 0.00 0.00 41 1019.0
20260502200204 64 318 2.0 7.0 0.00 0.00 0.00 41 1018.9
20260502195203 64 256 1.0 5.0 0.00 0.00 0.00 43 1018.9
20260502194704 63 346 2.0 12.0 0.00 0.00 0.00 43 1018.9
20260502194204 63 261 5.0 9.0 0.00 0.00 0.00 43 1018.9
20260502193703 63 231 3.0 12.0 0.00 0.00 0.00 44 1019.1
20260502192704 63 264 5.0 15.0 0.00 0.00 0.00 40 1018.9
20260502192204 64 321 3.0 8.0 0.00 0.00 0.00 41 1019.0
20260502191704 63 256 5.0 9.0 0.00 0.00 0.00 40 1019.0
20260502191204 64 284 5.0 14.0 0.00 0.00 0.00 41 1019.0
20260502190703 64 309 5.0 9.0 0.00 0.00 0.00 44 1019.1
20260502185704 63 331 3.0 12.0 0.00 0.00 0.00 46 1019.1
20260502185204 63 278 5.0 13.0 0.00 0.00 0.00 44 1019.1
20260502184704 63 249 5.0 12.0 0.00 0.00 0.00 43 1019.1
20260502184204 64 292 4.0 9.0 0.00 0.00 0.00 45 1019.2
20260502183704 63 250 4.0 12.0 0.00 0.00 0.00 44 1019.2
20260502183204 63 286 3.0 7.0 0.00 0.00 0.00 47 1019.3
20260502182704 63 319 4.0 13.0 0.00 0.00 0.00 46 1019.2
20260502182204 63 243 3.0 7.0 0.00 0.00 0.00 45 1019.3
20260502181703 62 277 6.0 14.0 0.00 0.00 0.00 46 1019.3
20260502181204 62 276 7.0 15.0 0.00 0.00 0.00 45 1019.4
20260502180703 62 246 3.0 18.0 0.00 0.00 0.00 43 1019.4
20260502180203 62 273 5.0 10.0 0.00 0.00 0.00 46 1019.5
20260502170204 62 268 3.0 7.0 0.00 0.00 0.00 48 1020.0
20260502164203 62 295 3.0 9.0 0.00 0.00 0.00 46 1019.9
20260502163704 62 254 2.0 5.0 0.00 0.00 0.00 48 1019.9
20260502163204 62 292 2.0 5.0 0.00 0.00 0.00 48 1019.9
20260502162204 61 247 5.0 8.0 0.00 0.00 0.00 47 1019.8
20260502161703 60 256 1.0 13.0 0.00 0.00 0.00 48 1019.9
20260502160203 60 263 2.0 8.0 0.00 0.00 0.00 46 1019.9
20260502151704 58 274 3.0 6.0 0.00 0.00 0.00 53 1019.7
20260502151203 58 306 1.0 5.0 0.00 0.00 0.00 55 1019.7
20260502150204 57 287 4.0 13.0 0.00 0.00 0.00 55 1019.8
20260502130703 49 271 0.0 3.0 0.00 0.00 0.00 75 1019.1
20260502130204 49 252 1.0 3.0 0.00 0.00 0.00 75 1019.0
20260502123204 46 310 0.0 2.0 0.00 0.00 0.00 80 1018.9
20260502122703 45 301 0.0 1.0 0.00 0.00 0.00 81 1018.8
20260502122204 45 279 0.0 1.0 0.00 0.00 0.00 82 1018.7
20260502121704 44 279 0.0 1.0 0.00 0.00 0.00 82 1018.7
20260502121203 44 281 0.0 1.0 0.00 0.00 0.00 83 1018.6
20260502120704 43 280 0.0 1.0 0.00 0.00 0.00 83 1018.6
20260502120203 43 278 0.0 0.0 0.00 0.00 0.00 84 1018.4
20260502115704 42 278 0.0 1.0 0.00 0.00 0.00 85 1018.4
20260502115204 42 285 0.0 0.0 0.00 0.00 0.00 87 1018.4
20260502114204 42 266 0.0 1.0 0.00 0.00 0.00 85 1018.3
20260502113704 42 266 0.0 1.0 0.00 0.00 0.00 85 1018.3
20260502113203 42 250 0.0 1.0 0.00 0.00 0.00 85 1018.2
20260502112704 42 243 1.0 1.0 0.00 0.00 0.00 84 1018.2
20260502112204 42 260 0.0 1.0 0.00 0.00 0.00 84 1018.2
20260502111703 43 260 0.0 1.0 0.00 0.00 0.00 83 1018.1
20260502111204 43 237 0.0 0.0 0.00 0.00 0.00 83 1018.0
20260502110703 43 274 0.0 0.0 0.00 0.00 0.00 83 1018.0
20260502110204 43 274 0.0 2.0 0.00 0.00 0.00 84 1017.9
20260502105704 43 274 0.0 1.0 0.00 0.00 0.00 83 1017.8
20260502105203 43 274 0.0 0.0 0.00 0.00 0.00 84 1017.7
20260502104704 43 274 0.0 0.0 0.00 0.00 0.00 83 1017.7
20260502104203 44 274 0.0 0.0 0.00 0.00 0.00 81 1017.6
20260502103704 44 274 0.0 0.0 0.00 0.00 0.00 81 1017.6
20260502103204 44 274 0.0 2.0 0.00 0.00 0.00 79 1017.5
20260502102704 45 274 0.0 1.0 0.00 0.00 0.00 78 1017.6
20260502102204 45 275 1.0 1.0 0.00 0.00 0.00 77 1017.5
20260502101703 45 264 1.0 1.0 0.00 0.00 0.00 76 1017.4
20260502100704 45 278 1.0 3.0 0.00 0.00 0.00 75 1017.4
20260502100203 45 266 2.0 3.0 0.00 0.00 0.00 75 1017.4
20260502091204 48 267 2.0 3.0 0.00 0.00 0.00 69 1017.2
20260502090204 48 278 1.0 3.0 0.00 0.00 0.00 69 1017.1
20260502071203 45 219 0.0 0.0 0.00 0.00 0.00 74 1017.2
20260502070704 45 219 0.0 0.0 0.00 0.00 0.00 74 1017.2
20260502065704 45 219 0.0 0.0 0.00 0.00 0.00 75 1017.3
20260502064704 45 219 0.0 0.0 0.00 0.00 0.00 76 1017.3
20260502064204 45 219 0.0 0.0 0.00 0.00 0.00 76 1017.3
20260502063704 46 219 0.0 0.0 0.00 0.00 0.00 79 1017.3
20260502063204 46 219 0.0 0.0 0.00 0.00 0.00 79 1017.4
20260502062704 46 219 0.0 0.0 0.00 0.00 0.00 82 1017.4
20260502062204 46 219 0.0 0.0 0.00 0.00 0.00 81 1017.4
20260502061703 46 219 0.0 0.0 0.00 0.00 0.00 79 1017.5
20260502061204 45 219 0.0 0.0 0.00 0.00 0.00 76 1017.4
20260502060703 45 219 0.0 0.0 0.00 0.00 0.00 75 1017.5
20260502060204 45 219 0.0 0.0 0.00 0.00 0.00 76 1017.6
20260502055704 44 219 0.0 0.0 0.00 0.00 0.00 72 1017.5
20260502054703 44 219 0.0 0.0 0.00 0.00 0.00 70 1017.5
20260502054204 44 219 0.0 0.0 0.00 0.00 0.00 70 1017.5
20260502053204 44 219 0.0 0.0 0.00 0.00 0.00 71 1017.4
20260502052704 44 219 0.0 0.0 0.00 0.00 0.00 72 1017.4
20260502052203 45 219 0.0 0.0 0.00 0.00 0.00 73 1017.4
20260502051704 45 219 0.0 0.0 0.00 0.00 0.00 73 1017.5
20260502051203 46 219 0.0 0.0 0.00 0.00 0.00 74 1017.4
20260502050703 46 219 0.0 0.0 0.00 0.00 0.00 74 1017.5
20260502050204 46 219 0.0 0.0 0.00 0.00 0.00 74 1017.5
20260502045704 46 219 0.0 0.0 0.00 0.00 0.00 74 1017.5
20260502044704 46 219 0.0 0.0 0.00 0.00 0.00 74 1017.4
20260502044203 46 219 0.0 0.0 0.00 0.00 0.00 70 1017.4
20260502043704 46 219 0.0 0.0 0.00 0.00 0.00 71 1017.4
20260502043203 46 219 0.0 0.0 0.00 0.00 0.00 71 1017.4
20260502042704 46 219 0.0 0.0 0.00 0.00 0.00 71 1017.5
20260502042203 47 219 0.0 0.0 0.00 0.00 0.00 71 1017.5
20260502041703 47 219 0.0 0.0 0.00 0.00 0.00 71 1017.5
20260502041204 47 219 0.0 0.0 0.00 0.00 0.00 70 1017.5
20260502040703 47 219 0.0 0.0 0.00 0.00 0.00 71 1017.5
20260502040204 47 219 0.0 0.0 0.00 0.00 0.00 69 1017.5
20260502035703 47 219 0.0 0.0 0.00 0.00 0.00 66 1017.4
20260502035204 47 219 0.0 0.0 0.00 0.00 0.00 67 1017.4
20260502034704 47 219 0.0 0.0 0.00 0.00 0.00 64 1017.5
20260502034204 47 219 0.0 0.0 0.00 0.00 0.00 65 1017.5
20260502033703 48 219 0.0 0.0 0.00 0.00 0.00 64 1017.6
20260502033204 48 219 0.0 0.0 0.00 0.00 0.00 65 1017.6
20260502032704 48 219 0.0 0.0 0.00 0.00 0.00 64 1017.6
20260502032203 49 219 0.0 0.0 0.00 0.00 0.00 64 1017.6
20260502031704 49 219 0.0 0.0 0.00 0.00 0.00 69 1017.6
20260502031203 49 219 0.0 0.0 0.00 0.00 0.00 64 1017.7
20260502030704 49 219 0.0 0.0 0.00 0.00 0.00 64 1017.7
20260502030203 49 219 0.0 0.0 0.00 0.00 0.00 64 1017.7
20260502025704 49 219 0.0 0.0 0.00 0.00 0.00 64 1017.7
20260502025203 50 219 0.0 0.0 0.00 0.00 0.00 63 1017.7
20260502024703 50 219 0.0 0.0 0.00 0.00 0.00 64 1017.7
20260502023704 51 219 0.0 0.0 0.00 0.00 0.00 64 1017.6
20260502023203 51 219 0.0 0.0 0.00 0.00 0.00 63 1017.6
20260502022704 51 219 0.0 0.0 0.00 0.00 0.00 61 1017.6
20260502022203 51 219 0.0 0.0 0.00 0.00 0.00 64 1017.6
20260502021704 52 219 0.0 0.0 0.00 0.00 0.00 67 1017.5
20260502021204 52 219 0.0 0.0 0.00 0.00 0.00 65 1017.5
20260502020704 51 219 0.0 0.0 0.00 0.00 0.00 58 1017.4
20260502020204 52 219 0.0 0.0 0.00 0.00 0.00 59 1017.4
20260502015704 52 219 0.0 0.0 0.00 0.00 0.00 63 1017.3
20260502015204 52 219 0.0 0.0 0.00 0.00 0.00 61 1017.3
20260502014704 53 219 0.0 0.0 0.00 0.00 0.00 58 1017.2
20260502014204 53 219 0.0 0.0 0.00 0.00 0.00 59 1017.1
20260502013703 54 219 0.0 0.0 0.00 0.00 0.00 63 1017.0
20260502013204 54 219 0.0 0.0 0.00 0.00 0.00 60 1017.0
20260502012703 55 219 0.0 0.0 0.00 0.00 0.00 60 1016.9
20260502012203 56 219 0.0 0.0 0.00 0.00 0.00 62 1016.7
20260502011703 56 219 0.0 0.0 0.00 0.00 0.00 59 1016.6
20260502011204 57 219 0.0 0.0 0.00 0.00 0.00 55 1016.6
20260502010704 58 219 0.0 0.0 0.00 0.00 0.00 54 1016.5
20260502010204 58 219 0.0 0.0 0.00 0.00 0.00 52 1016.4
20260502005705 59 219 0.0 0.0 0.00 0.00 0.00 51 1016.3
20260502004703 63 228 0.0 0.0 0.00 0.00 0.00 46 1016.1
20260502004203 64 229 0.0 0.0 0.00 0.00 0.00 44 1015.9
20260502003204 65 228 0.0 0.0 0.00 0.00 0.00 42 1015.9
20260502002703 65 229 0.0 0.0 0.00 0.00 0.00 40 1015.8
20260502002204 65 228 0.0 0.0 0.00 0.00 0.00 42 1015.8
20260502001703 63 229 0.0 1.0 0.00 0.00 0.00 44 1015.7
20260502001203 62 228 0.0 1.0 0.00 0.00 0.00 42 1015.7
20260502000204 64 253 1.0 1.0 0.00 0.00 0.00 40 1015.7
20260501235704 64 243 0.0 2.0 0.00 0.00 0.00 39 1015.7
20260501235204 64 280 1.0 2.0 0.00 0.00 0.00 38 1015.6
20260501234704 64 234 0.0 6.0 0.00 0.00 0.00 37 1015.7
20260501234204 65 244 1.0 5.0 0.00 0.00 0.00 38 1015.8
20260501233203 64 292 1.0 5.0 0.00 0.00 0.00 37 1015.8
20260501232703 65 266 1.0 3.0 0.00 0.00 0.00 36 1015.7
20260501232204 64 260 1.0 5.0 0.00 0.00 0.00 38 1015.7
20260501231704 64 291 2.0 5.0 0.00 0.00 0.00 37 1015.8
20260501231203 64 281 1.0 3.0 0.00 0.00 0.00 36 1015.8
20260501225703 65 263 1.0 5.0 0.00 0.00 0.00 38 1015.8
20260501225203 65 16 2.0 6.0 0.00 0.00 0.00 39 1015.7
20260501224704 64 332 2.0 6.0 0.00 0.00 0.00 36 1015.6
20260501224204 65 351 3.0 8.0 0.00 0.00 0.00 37 1015.5
20260501223204 65 260 1.0 5.0 0.00 0.00 0.00 37 1015.4
20260501222704 64 268 2.0 5.0 0.00 0.00 0.00 37 1015.5
20260501222203 65 348 2.0 8.0 0.00 0.00 0.00 37 1015.5
20260501221703 65 0 2.0 5.0 0.00 0.00 0.00 38 1015.4
20260501221203 64 303 3.0 7.0 0.00 0.00 0.00 36 1015.3
20260501220704 65 308 2.0 5.0 0.00 0.00 0.00 39 1015.3
20260501215703 65 305 3.0 6.0 0.00 0.00 0.00 38 1015.3
20260501215203 65 357 5.0 10.0 0.00 0.00 0.00 35 1015.0
20260501214704 65 319 2.0 6.0 0.00 0.00 0.00 36 1015.1
20260501214204 65 298 3.0 7.0 0.00 0.00 0.00 38 1015.0
20260501213704 65 295 4.0 9.0 0.00 0.00 0.00 36 1014.9
20260501213203 65 277 2.0 7.0 0.00 0.00 0.00 38 1015.1
20260501212704 65 315 1.0 6.0 0.00 0.00 0.00 35 1015.2
20260501212203 66 351 1.0 7.0 0.00 0.00 0.00 36 1015.3
20260501211704 66 281 2.0 8.0 0.00 0.00 0.00 39 1015.5
20260501211204 65 252 2.0 12.0 0.00 0.00 0.00 34 1015.6
20260501210704 65 296 2.0 8.0 0.00 0.00 0.00 35 1015.7
20260501210203 66 244 2.0 3.0 0.00 0.00 0.00 36 1016.0
20260501205204 65 255 1.0 6.0 0.00 0.00 0.00 36 1016.1
20260501204703 64 276 2.0 9.0 0.00 0.00 0.00 36 1016.2
20260501204203 65 255 3.0 6.0 0.00 0.00 0.00 35 1016.2